When you browse on this site, cookies collect data to enhance your experience and personalize the content and advertising you see.
Visit our Privacy Policy to learn more. By continuing to use the site, you agree to this use of cookies and data.

Météo par heure à Seli

Ce jour, 12 Août, Mercredi

Heure Température Précipitation Vent Pression Humidité
00:00 +26°C° 0 mm 3 m/s 747 mmHg 48%
01:00 +26°C° 0 mm 3 m/s 747 mmHg 48%
02:00 +26°C° 0 mm 3 m/s 746 mmHg 47%
03:00 +26°C° 0 mm 3 m/s 746 mmHg 49%
04:00 +26°C° 0 mm 3 m/s 746 mmHg 50%
05:00 +26°C° 0 mm 3 m/s 746 mmHg 51%
06:00 +27°C° 0 mm 4 m/s 746 mmHg 48%
07:00 +29°C° 0 mm 4 m/s 746 mmHg 44%
08:00 +30°C° 0 mm 4 m/s 746 mmHg 41%
09:00 +32°C° 0 mm 4 m/s 746 mmHg 39%
10:00 +33°C° 0 mm 5 m/s 746 mmHg 38%
11:00 +33°C° 0 mm 5 m/s 747 mmHg 36%
12:00 +33°C° 0 mm 5 m/s 747 mmHg 36%
13:00 +34°C° 0 mm 5 m/s 746 mmHg 36%
14:00 +34°C° 0 mm 5 m/s 746 mmHg 36%
15:00 +33°C° 0 mm 5 m/s 746 mmHg 37%
16:00 +33°C° 0 mm 4 m/s 746 mmHg 37%
17:00 +33°C° 0 mm 4 m/s 746 mmHg 38%
18:00 +30°C° 0 mm 4 m/s 746 mmHg 44%
19:00 +29°C° 0 mm 3 m/s 746 mmHg 49%
20:00 +27°C° 0 mm 3 m/s 746 mmHg 55%
21:00 +27°C° 0 mm 3 m/s 746 mmHg 52%
22:00 +27°C° 0 mm 3 m/s 746 mmHg 50%
23:00 +28°C° 0 mm 3 m/s 747 mmHg 47%

Demain, 13 Août, Jeudi

Heure Température Précipitation Vent Pression Humidité
00:00 +27°C° 0 mm 3 m/s 746 mmHg 47%
01:00 +27°C° 0 mm 3 m/s 746 mmHg 48%
02:00 +27°C° 0 mm 3 m/s 746 mmHg 48%
03:00 +27°C° 0 mm 3 m/s 746 mmHg 49%
04:00 +27°C° 0 mm 3 m/s 745 mmHg 50%
05:00 +27°C° 0 mm 3 m/s 745 mmHg 51%
06:00 +28°C° 0 mm 3 m/s 745 mmHg 47%
07:00 +30°C° 0 mm 4 m/s 746 mmHg 43%
08:00 +32°C° 0 mm 4 m/s 746 mmHg 39%
09:00 +33°C° 0 mm 4 m/s 746 mmHg 38%
10:00 +33°C° 0 mm 5 m/s 746 mmHg 37%
11:00 +34°C° 0 mm 5 m/s 746 mmHg 36%
12:00 +34°C° 0 mm 5 m/s 746 mmHg 36%
13:00 +34°C° 0 mm 5 m/s 746 mmHg 37%
14:00 +34°C° 0 mm 5 m/s 746 mmHg 37%
15:00 +34°C° 0 mm 4 m/s 746 mmHg 38%
16:00 +33°C° 0 mm 4 m/s 746 mmHg 39%
17:00 +33°C° 0 mm 3 m/s 746 mmHg 39%
18:00 +31°C° 0 mm 3 m/s 746 mmHg 43%
19:00 +29°C° 0 mm 3 m/s 746 mmHg 47%
20:00 +28°C° 0 mm 2 m/s 746 mmHg 51%
21:00 +28°C° 0 mm 2 m/s 746 mmHg 52%
22:00 +28°C° 0 mm 3 m/s 746 mmHg 52%
23:00 +28°C° 0 mm 3 m/s 746 mmHg 52%

Après-demain, 14 Août, Vendredi

Heure Température Précipitation Vent Pression Humidité
00:00 +27°C° 0 mm 3 m/s 746 mmHg 52%
01:00 +27°C° 0 mm 3 m/s 746 mmHg 51%
02:00 +27°C° 0 mm 3 m/s 746 mmHg 51%
03:00 +27°C° 0 mm 4 m/s 746 mmHg 52%
04:00 +27°C° 0 mm 4 m/s 745 mmHg 54%
05:00 +27°C° 0 mm 4 m/s 745 mmHg 55%
06:00 +28°C° 0 mm 4 m/s 745 mmHg 52%
07:00 +29°C° 0 mm 4 m/s 745 mmHg 49%
08:00 +30°C° 0 mm 5 m/s 745 mmHg 46%
09:00 +32°C° 0 mm 5 m/s 746 mmHg 44%
10:00 +32°C° 0 mm 5 m/s 746 mmHg 42%
11:00 +33°C° 0 mm 6 m/s 746 mmHg 39%
12:00 +33°C° 0 mm 6 m/s 746 mmHg 39%
13:00 +33°C° 0 mm 5 m/s 746 mmHg 39%
14:00 +33°C° 0 mm 5 m/s 746 mmHg 39%
15:00 +33°C° 0 mm 5 m/s 745 mmHg 40%
16:00 +32°C° 0 mm 5 m/s 745 mmHg 40%
17:00 +32°C° 0 mm 4 m/s 745 mmHg 40%
18:00 +30°C° 0 mm 4 m/s 745 mmHg 43%
19:00 +29°C° 0 mm 4 m/s 745 mmHg 45%
20:00 +27°C° 0 mm 3 m/s 745 mmHg 48%
21:00 +27°C° 0 mm 3 m/s 745 mmHg 48%
22:00 +27°C° 0 mm 3 m/s 745 mmHg 48%
23:00 +27°C° 0 mm 4 m/s 745 mmHg 49%

15 Août, Samedi

Heure Température Précipitation Vent Pression Humidité
00:00 +27°C° 0 mm 4 m/s 745 mmHg 49%
01:00 +27°C° 0 mm 4 m/s 745 mmHg 49%
02:00 +27°C° 0 mm 4 m/s 745 mmHg 48%
03:00 +27°C° 0 mm 4 m/s 745 mmHg 47%
04:00 +26°C° 0 mm 4 m/s 744 mmHg 46%
05:00 +26°C° 0 mm 4 m/s 744 mmHg 46%
06:00 +28°C° 0 mm 4 m/s 744 mmHg 44%
07:00 +29°C° 0 mm 4 m/s 744 mmHg 42%
08:00 +30°C° 0 mm 4 m/s 745 mmHg 40%
09:00 +32°C° 0 mm 5 m/s 745 mmHg 38%
10:00 +33°C° 0 mm 5 m/s 745 mmHg 36%
11:00 +33°C° 0 mm 5 m/s 745 mmHg 34%
12:00 +33°C° 0 mm 5 m/s 745 mmHg 33%
13:00 +33°C° 0 mm 4 m/s 745 mmHg 33%
14:00 +33°C° 0 mm 4 m/s 745 mmHg 32%
15:00 +33°C° 0 mm 4 m/s 744 mmHg 32%
16:00 +33°C° 0 mm 3 m/s 744 mmHg 33%
17:00 +31°C° 0 mm 2 m/s 744 mmHg 33%
18:00 +30°C° 0 mm 2 m/s 744 mmHg 36%
19:00 +29°C° 0 mm 2 m/s 744 mmHg 39%
20:00 +27°C° 0 mm 2 m/s 744 mmHg 42%
21:00 +27°C° 0 mm 3 m/s 744 mmHg 42%
22:00 +27°C° 0 mm 3 m/s 744 mmHg 42%
23:00 +27°C° 0 mm 3 m/s 744 mmHg 42%

16 Août, Dimanche

Heure Température Précipitation Vent Pression Humidité
00:00 +27°C° 0 mm 3 m/s 744 mmHg 42%
01:00 +27°C° 0 mm 3 m/s 744 mmHg 43%
02:00 +26°C° 0 mm 4 m/s 744 mmHg 43%
03:00 +26°C° 0 mm 4 m/s 743 mmHg 44%
04:00 +26°C° 0 mm 4 m/s 743 mmHg 45%
05:00 +26°C° 0 mm 4 m/s 743 mmHg 46%
06:00 +27°C° 0 mm 4 m/s 743 mmHg 44%
07:00 +28°C° 0 mm 4 m/s 744 mmHg 41%
08:00 +29°C° 0 mm 4 m/s 744 mmHg 39%
09:00 +30°C° 0 mm 5 m/s 744 mmHg 39%
10:00 +30°C° 0 mm 5 m/s 744 mmHg 40%
11:00 +32°C° 0 mm 5 m/s 745 mmHg 40%
12:00 +32°C° 0 mm 5 m/s 745 mmHg 41%
13:00 +32°C° 0 mm 5 m/s 745 mmHg 42%
14:00 +32°C° 0 mm 5 m/s 745 mmHg 43%
15:00 +30°C° 0 mm 5 m/s 745 mmHg 44%
16:00 +30°C° 0 mm 4 m/s 744 mmHg 44%
17:00 +29°C° 0 mm 4 m/s 744 mmHg 45%
18:00 +28°C° 0 mm 4 m/s 744 mmHg 48%
19:00 +27°C° 0 mm 3 m/s 745 mmHg 51%
20:00 +26°C° 0 mm 3 m/s 745 mmHg 55%
21:00 +26°C° 0 mm 3 m/s 745 mmHg 54%
22:00 +26°C° 0 mm 4 m/s 745 mmHg 53%
23:00 +26°C° 0 mm 4 m/s 745 mmHg 52%

17 Août, Lundi

Heure Température Précipitation Vent Pression Humidité
00:00 +26°C° 0 mm 4 m/s 745 mmHg 53%
01:00 +26°C° 0 mm 4 m/s 745 mmHg 54%
02:00 +25°C° 0 mm 5 m/s 745 mmHg 55%
03:00 +25°C° 0 mm 5 m/s 745 mmHg 58%
04:00 +25°C° 0 mm 5 m/s 745 mmHg 61%
05:00 +24°C° 0 mm 6 m/s 744 mmHg 64%
06:00 +26°C° 0 mm 6 m/s 745 mmHg 62%
07:00 +26°C° 0 mm 7 m/s 745 mmHg 59%
08:00 +27°C° 0 mm 7 m/s 745 mmHg 56%
09:00 +28°C° 0 mm 7 m/s 745 mmHg 53%
10:00 +28°C° 0 mm 7 m/s 746 mmHg 50%
11:00 +29°C° 0 mm 7 m/s 746 mmHg 46%
12:00 +29°C° 0 mm 7 m/s 746 mmHg 46%
13:00 +29°C° 0 mm 7 m/s 746 mmHg 46%
14:00 +29°C° 0 mm 7 m/s 746 mmHg 46%
15:00 +29°C° 0 mm 6 m/s 746 mmHg 47%
16:00 +28°C° 0 mm 6 m/s 746 mmHg 49%
17:00 +28°C° 0 mm 5 m/s 746 mmHg 50%
18:00 +27°C° 0 mm 5 m/s 746 mmHg 52%
19:00 +26°C° 0 mm 5 m/s 746 mmHg 53%
20:00 +25°C° 0 mm 4 m/s 746 mmHg 55%
21:00 +25°C° 0 mm 5 m/s 746 mmHg 54%
22:00 +25°C° 0 mm 5 m/s 746 mmHg 53%
23:00 +25°C° 0 mm 5 m/s 746 mmHg 52%
Voir plus